Regional Weather Roundup
Issued by NWS

Home | Current Version | Previous Version | Text Only | Print | Product List | Glossary On
Versions: 1 2 3 4 5 6 7 8 9 10 11 12 13 14 15 16 17 18 19 20 21 22 23 24 25 26 27 28 29 30 31 32 33 34 35 36 37 38 39 40 41 42 43 44 45 46 47 48 49 50
000
ASUS46 KSEW 100810
RWRWA

WASHINGTON REGIONAL WEATHER ROUNDUP
NATIONAL WEATHER SERVICE SEATTLE WA
100 AM PDT THU JUL 10 2014

NOTE:"FAIR" INDICATES FEW OR NO CLOUDS BELOW 12,000 FEET WITH NO
SIGNIFICANT WEATHER AND/OR OBSTRUCTIONS TO VISIBILITY.

WAZ505-507>509-100900-
SEATTLE, TACOMA, EVERETT, AND VICINITY

CITY           SKY/WX    TMP DP  RH WIND       PRES   REMARKS
EVERETT        CLEAR     58  53  84 CALM      29.96S
BOEING FIELD   CLEAR     68  52  56 NW3       29.95R
RENTON         CLEAR     66  57  72 S7        29.95R
SEATAC AIRPORT CLEAR     61  56  83 S6        29.97R
JBLM-MCCHORD   CLEAR     60  54  81 W3        29.97S
PUYALLUP       FAIR      55  55 100 CALM      29.98S
JBLM-FT LEWIS  CLEAR     58  54  85 W3        29.97R
TACOMA NARROWS CLEAR     59  53  80 SW5       29.97S
$$

WAZ001-503-506-510-514-515-100900-
NORTH INTERIOR

CITY           SKY/WX    TMP DP  RH WIND       PRES   REMARKS
BELLINGHAM     CLEAR     57  52  83 CALM      29.94S
FRIDAY HARBOR  CLEAR     52  50  93 CALM      29.96R
EASTSOUND      CLEAR     57  54  88 MISG      29.93S
PORT ANGELES   CLEAR     54  51  90 CALM      29.96S
NAS WHIDBEY    CLEAR     54  50  86 CALM      29.96S
BURLINGTON     CLEAR     55  55 100 CALM      29.96S
$$

WAZ020-022-039-040-504-511-512-100900-
SOUTHWEST INTERIOR

CITY           SKY/WX    TMP DP  RH WIND       PRES   REMARKS
SHELTON        CLOUDY    55  52  89 W14       29.95S
OLYMPIA        CLEAR     55  51  86 S7        29.97S
CHEHALIS       FAIR      55  54  94 CALM      29.99S
KELSO          CLOUDY    57  48  72 N3        30.03S
VANCOUVER      CLEAR     59  50  72 NW5       29.96S
SCAPPOOSE, OR  CLEAR     57  49  74 N7        29.96S
PORTLAND, OR   CLEAR     60  51  72 NW6       29.97R
$$

WAZ021-516-517-100900-
WASHINGTON COAST

CITY           SKY/WX    TMP DP  RH WIND       PRES   REMARKS
FORKS          CLOUDY    55  54  96 CALM      29.97F FOG
HOQUIAM        CLOUDY    57  54  89 NW6       30.00S
ASTORIA, OR    CLOUDY    59  53  80 W5        30.00F
$$

WAZ019-023-024-040-518-519-100900-
CASCADE MOUNTAINS AND COLUMBIA GORGE

CITY           SKY/WX    TMP DP  RH WIND       PRES   REMARKS
STAMPEDE PASS  NOT AVBL
TROUTDALE, OR  CLEAR     61  52  72 NW3       29.95S
THE DALLES, OR CLEAR     76  47  35 NW21G29   29.82R
$$

WAZ026-027-041>044-520-521-100900-
EAST SLOPES

CITY           SKY/WX    TMP DP  RH WIND       PRES   REMARKS
OMAK           CLEAR     75  35  23 NW9       29.77R
WENATCHEE      NOT AVBL
ELLENSBURG     CLEAR     68  47  46 NW25G37   29.84F
YAKIMA         CLEAR     75  45  34 N8        29.82S
$$

WAZ028-034-035-100900-
COLUMBIA BASIN

CITY           SKY/WX    TMP DP  RH WIND       PRES   REMARKS
EPHRATA        CLEAR     77  40  26 NW14G21   29.75S
MOSES LAKE     CLEAR     75  45  34 W8        29.77R
HANFORD        NOT AVBL
PASCO          CLEAR     75  43  31 N5        29.76R
HERMISTON, OR  CLEAR     75  50  41 SW13      29.77R
$$

WAZ036>038-100900-
NORTHEAST WASHINGTON

CITY           SKY/WX    TMP DP  RH WIND       PRES   REMARKS
SPOKANE GEIGER MOCLDY    73  39  29 SW14      29.79S
SPOKANE FELTS  CLEAR     66  45  46 CALM      29.79R
FAIRCHILD AFB  CLEAR     70  42  35 S2        29.81R
COEURDALENE,ID CLEAR     64  52  63 S8        29.80S
DEER PARK      CLEAR     57  41  55 E5        29.78S
$$

WAZ029>033-100900-
SOUTHEAST WASHINGTON

CITY           SKY/WX    TMP DP  RH WIND       PRES   REMARKS
PULLMAN        CLEAR     53  45  74 CALM      29.86S
LEWISTON, ID   CLEAR     74  39  28 S3        29.78R
WALLA WALLA    CLEAR     76  49  38 S12       29.82R
PENDLETON, OR  CLEAR     67  46  47 SE8       29.83R
$$


USA.gov is the U.S. government's official web portal to all federal, state and local government web resources and services.